Powrót do katalogu

DELTA 1 DEB

YO

AktywnyLEO
NORAD 227·DEBRIS·🇺🇸 United States

Wystrzelony Feb 8, 1962 z Cape Canaveral Space Force Station

Loading…

Następne Przeloty (najbliższe 24 godziny)

TLE

ŚwieżeSource: Space-Track

Epoka: Sep 9, 2026, 06:36 UTC

1   227U 62002B   26252.27500191 -.00000018  00000-0  45257-4 0  9990
2   227  48.1480 331.4686 0126604  46.3391 314.7917 14.40825003356423

Śledź DELTA 1 DEB w czasie rzeczywistym z AllMySat

Download on the App Store